Simultaneous Nadir Overpasses (SNOs) Predictions

Prediction of SNOs between GOES-16 and LANDSAT-8 Satellite Orbit:

Table of predicted SNOs for the next 14.0 days since TLE Epoch: 8/29/2025
Index Date Time (GOES-16) GOES-16 Lat,Lon LANDSAT-8 Lat,Lon Distance(km) Time Diff (sec)
1 08/30/2025 05:01:01 -0.05,-104.67 0.39,-102.54 242.12 80
2 08/30/2025 17:24:57 0.06,-104.71 0.70,-107.70 340.13 80
3 09/01/2025 17:12:47 0.06,-104.70 0.07,-104.75 5.16 80
4 09/03/2025 16:57:57 0.06,-104.69 -0.57,-101.79 329.77 80
5 09/04/2025 05:22:00 -0.07,-104.65 -0.56,-106.98 264.59 80
6 09/06/2025 05:07:09 -0.07,-104.64 0.04,-104.02 70.48 80
7 09/08/2025 04:55:00 -0.06,-104.64 0.72,-101.07 405.75 80
8 09/08/2025 17:18:54 0.08,-104.67 0.42,-106.22 176.71 80
9 09/10/2025 17:04:03 0.07,-104.66 -0.21,-103.26 158.72 80
10 09/11/2025 05:28:07 -0.08,-104.63 -0.90,-108.45 435.11 80
11 09/12/2025 16:51:52 0.07,-104.65 -0.86,-100.31 493.91 80
